FW6366 Weather Reports


Display with metric or nautical units.
time (UTC)temp
F
wind
direction
speed
MPH
gust
MPH
rain 1hr
in
rain 24hr
in
rain mn
in
humidity
%
barometer
mb
20260831043104 64 0 0.0 2.0 0.00 0.00 0.00 93 1019.7
20260831042559 64 0 0.0 2.0 0.00 0.00 0.00 93 1019.6
20260831042059 64 0 0.0 2.0 0.00 0.00 0.00 93 1019.7
20260831041609 64 0 0.0 2.0 0.00 0.00 0.00 93 1019.6
20260831041057 64 0 0.0 2.0 0.00 0.00 0.00 93 1019.7
20260831040557 64 0 0.0 2.0 0.00 0.00 0.00 93 1019.5
20260831040107 64 309 0.0 2.0 0.00 0.00 0.00 93 1019.5
20260831035600 64 0 0.0 1.0 0.00 0.00 0.00 93 1019.5
20260831035059 64 313 0.0 1.0 0.00 0.00 0.00 93 1019.5
20260831034604 64 323 0.0 1.0 0.00 0.00 0.00 93 1019.4
20260831034058 64 0 0.0 0.0 0.00 0.00 0.00 93 1019.3
20260831033558 64 0 0.0 1.0 0.00 0.00 0.00 93 1019.4
20260831033108 64 0 0.0 1.0 0.00 0.00 0.00 92 1019.2
20260831032601 64 0 0.0 1.0 0.00 0.00 0.00 92 1019.4
20260831032101 64 0 0.0 1.0 0.00 0.00 0.00 92 1019.4
20260831031602 64 0 0.0 1.0 0.00 0.00 0.00 92 1019.4
20260831031058 64 0 0.0 1.0 0.00 0.00 0.00 92 1019.5
20260831030600 64 0 0.0 1.0 0.00 0.00 0.00 92 1019.5
20260831025559 64 0 0.0 2.0 0.00 0.00 0.00 92 1019.4
20260831025059 64 0 0.0 2.0 0.00 0.00 0.00 92 1019.5
20260831024618 64 0 0.0 3.0 0.00 0.00 0.00 92 1019.5
20260831024056 64 216 0.0 4.0 0.00 0.00 0.00 92 1019.5
20260831023555 64 186 0.0 4.0 0.00 0.00 0.00 92 1019.5
20260831023102 64 156 0.0 4.0 0.00 0.00 0.00 92 1019.4
20260831022600 64 0 0.0 3.0 0.00 0.00 0.00 92 1019.3
20260831022057 64 0 0.0 3.0 0.00 0.00 0.00 92 1019.5
20260831021605 64 169 0.0 2.0 0.00 0.00 0.00 92 1019.5
20260831021101 64 235 0.0 1.0 0.00 0.00 0.00 92 1019.5
20260831020603 65 0 0.0 0.0 0.00 0.00 0.00 92 1019.5
20260831015600 65 0 0.0 2.0 0.00 0.00 0.00 92 1019.5
20260831015100 65 0 0.0 2.0 0.00 0.00 0.00 92 1019.4
20260831014603 65 0 0.0 2.0 0.00 0.00 0.00 92 1019.3
20260831014100 65 213 0.0 2.0 0.00 0.00 0.00 92 1019.3
20260831013600 65 294 0.0 1.0 0.00 0.00 0.00 92 1019.2
20260831013104 65 0 0.0 3.0 0.00 0.00 0.00 92 1019.1
20260831012601 65 0 0.0 3.0 0.00 0.00 0.00 92 1018.8
20260831012101 65 0 1.0 3.0 0.00 0.00 0.00 92 1018.8
20260831011602 65 289 0.0 3.0 0.00 0.00 0.00 92 1018.7
20260831011100 65 0 0.0 3.0 0.00 0.00 0.00 92 1018.6
20260831010558 65 0 0.0 2.0 0.00 0.00 0.00 92 1018.5
20260831010132 65 0 0.0 3.0 0.00 0.00 0.00 92 1018.4
20260831005601 65 0 1.0 3.0 0.00 0.00 0.00 92 1018.5
20260831005101 65 185 1.0 3.0 0.00 0.00 0.00 92 1018.6
20260831004609 65 106 0.0 3.0 0.00 0.00 0.00 92 1018.6
20260831004102 65 162 0.0 3.0 0.00 0.00 0.00 92 1018.4
20260831003559 65 151 0.0 3.0 0.00 0.00 0.00 92 1018.3
20260831003106 65 274 0.0 3.0 0.00 0.00 0.00 92 1018.3
20260831002559 65 241 0.0 2.0 0.00 0.00 0.00 92 1018.3
20260831002059 65 0 0.0 2.0 0.00 0.00 0.00 92 1018.3
20260831001610 66 0 0.0 3.0 0.00 0.00 0.00 92 1018.1
20260831001101 66 188 0.0 3.0 0.00 0.00 0.00 92 1018.0
20260831000601 66 294 0.0 3.0 0.00 0.00 0.00 92 1018.0
20260831000106 66 0 0.0 4.0 0.00 0.00 0.00 92 1017.9
20260830235559 66 106 0.0 4.0 0.00 0.00 0.00 92 1017.6
20260830235101 66 154 0.0 3.0 0.00 0.00 0.00 92 1017.6
20260830234602 66 0 0.0 3.0 0.00 0.00 0.00 93 1017.6
20260830234059 66 285 1.0 5.0 0.00 0.00 0.00 93 1017.9
20260830233603 66 153 0.0 5.0 0.00 0.00 0.00 93 1017.7
20260830233105 66 159 2.0 5.0 0.00 0.00 0.00 93 1017.8
20260830232601 66 169 0.0 4.0 0.00 0.00 0.00 93 1017.9
20260830232059 66 283 1.0 5.0 0.00 0.00 0.00 93 1017.7
20260830231603 66 299 1.0 5.0 0.00 0.00 0.00 93 1017.7
20260830231103 66 0 0.0 5.0 0.00 0.00 0.00 93 1017.7
20260830230600 66 165 1.0 5.0 0.00 0.00 0.00 93 1017.5
20260830225559 66 0 1.0 3.0 0.00 0.00 0.00 93 1017.7
20260830225059 66 203 0.0 3.0 0.00 0.00 0.00 93 1017.6
20260830224610 66 0 0.0 3.0 0.00 0.00 0.00 92 1017.7
20260830224100 66 0 1.0 3.0 0.00 0.00 0.00 92 1017.5
20260830223600 66 167 0.0 2.0 0.00 0.00 0.00 92 1017.5
20260830223104 67 177 0.0 3.0 0.00 0.00 0.00 91 1017.6
20260830222601 67 296 0.0 3.0 0.00 0.00 0.00 91 1017.6
20260830222100 67 252 0.0 3.0 0.00 0.00 0.00 91 1017.6
20260830221602 67 290 0.0 3.0 0.00 0.00 0.00 91 1017.5
20260830221100 67 0 0.0 3.0 0.00 0.00 0.00 91 1017.4
20260830220600 67 0 0.0 2.0 0.00 0.00 0.00 90 1017.5
20260830220124 67 0 0.0 3.0 0.00 0.00 0.00 90 1017.6
20260830215558 68 284 0.0 3.0 0.00 0.00 0.00 90 1017.6
20260830215105 68 297 0.0 2.0 0.00 0.00 0.00 89 1017.5
20260830214606 68 299 0.0 3.0 0.00 0.00 0.00 89 1017.6
20260830214104 68 300 0.0 3.0 0.00 0.00 0.00 89 1017.5
20260830213600 68 300 1.0 4.0 0.00 0.00 0.00 87 1017.6
20260830213102 69 283 1.0 4.0 0.00 0.00 0.00 87 1017.5
20260830212600 69 313 0.0 3.0 0.00 0.00 0.00 86 1017.4
20260830212101 69 233 1.0 6.0 0.00 0.00 0.00 84 1017.5
20260830211604 70 0 0.0 6.0 0.00 0.00 0.00 84 1017.3
20260830211104 70 0 1.0 6.0 0.00 0.00 0.00 84 1017.3
20260830210558 70 270 0.0 2.0 0.00 0.00 0.00 83 1017.4
20260830210105 70 0 0.0 4.0 0.00 0.00 0.00 84 1017.3
20260830205559 70 0 0.0 4.0 0.00 0.00 0.00 84 1017.4
20260830205059 71 204 1.0 4.0 0.00 0.00 0.00 83 1017.3
20260830204602 71 0 1.0 4.0 0.00 0.00 0.00 82 1017.5
20260830204102 71 0 0.0 6.0 0.00 0.00 0.00 80 1017.5
20260830203601 71 295 1.0 6.0 0.00 0.00 0.00 83 1017.3
20260830203124 71 0 0.0 2.0 0.00 0.00 0.00 82 1017.4
20260830202601 71 0 0.0 2.0 0.00 0.00 0.00 80 1017.4
20260830202100 71 0 0.0 2.0 0.00 0.00 0.00 80 1017.5
20260830201602 72 0 0.0 2.0 0.00 0.00 0.00 79 1017.6
20260830201059 72 0 0.0 4.0 0.00 0.00 0.00 76 1017.6
20260830200600 73 138 0.0 5.0 0.00 0.00 0.00 74 1017.6
20260830200104 73 171 1.0 5.0 0.00 0.00 0.00 72 1017.6
20260830195559 74 179 1.0 5.0 0.00 0.00 0.00 74 1017.6
20260830195059 75 209 0.0 6.0 0.00 0.00 0.00 72 1017.4
20260830194608 75 0 1.0 6.0 0.00 0.00 0.00 68 1017.5
20260830194102 74 0 2.0 6.0 0.00 0.00 0.00 72 1017.6
20260830193559 74 156 1.0 5.0 0.00 0.00 0.00 75 1017.6
20260830193105 74 277 1.0 5.0 0.00 0.00 0.00 77 1017.6
20260830192600 74 0 0.0 5.0 0.00 0.00 0.00 73 1017.6
20260830192100 74 296 0.0 5.0 0.00 0.00 0.00 75 1017.7
20260830191603 75 0 2.0 5.0 0.00 0.00 0.00 68 1017.8
20260830191100 75 308 0.0 7.0 0.00 0.00 0.00 69 1018.0
20260830190600 75 0 0.0 7.0 0.00 0.00 0.00 69 1017.9
20260830185559 74 0 1.0 9.0 0.00 0.00 0.00 72 1018.0
20260830185100 74 156 1.0 9.0 0.00 0.00 0.00 72 1018.0
20260830184613 73 176 2.0 6.0 0.00 0.00 0.00 74 1018.1
20260830184059 72 159 0.0 4.0 0.00 0.00 0.00 79 1018.1
20260830183600 72 0 0.0 4.0 0.00 0.00 0.00 80 1018.2
20260830183123 73 147 0.0 7.0 0.00 0.00 0.00 77 1018.1
20260830182601 74 315 0.0 7.0 0.00 0.00 0.00 74 1018.3
20260830182101 74 151 2.0 6.0 0.00 0.00 0.00 72 1018.4
20260830181623 75 229 1.0 6.0 0.00 0.00 0.00 70 1018.4
20260830181101 74 221 2.0 5.0 0.00 0.00 0.00 77 1018.4
20260830180600 74 174 1.0 6.0 0.00 0.00 0.00 76 1018.4
20260830180112 74 163 1.0 6.0 0.00 0.00 0.00 75 1018.3
20260830175600 74 0 2.0 6.0 0.00 0.00 0.00 74 1018.4
20260830175100 72 138 0.0 2.0 0.00 0.00 0.00 84 1018.5
20260830174606 71 274 0.0 2.0 0.00 0.00 0.00 82 1018.6
20260830174100 71 0 0.0 2.0 0.00 0.00 0.00 82 1018.7
20260830173558 71 0 0.0 2.0 0.00 0.00 0.00 82 1018.7
20260830173148 71 0 0.0 2.0 0.00 0.00 0.00 83 1018.8
20260830172558 71 0 0.0 2.0 0.00 0.00 0.00 82 1018.9
20260830172058 71 272 0.0 4.0 0.00 0.00 0.00 80 1018.9
20260830171610 71 144 0.0 4.0 0.00 0.00 0.00 80 1019.0
20260830171100 72 0 0.0 4.0 0.00 0.00 0.00 79 1019.1
20260830170557 72 202 0.0 3.0 0.00 0.00 0.00 78 1019.2
20260830170104 72 271 0.0 4.0 0.00 0.00 0.00 78 1019.3
20260830165604 72 0 1.0 4.0 0.00 0.00 0.00 76 1019.3
20260830165059 72 130 1.0 4.0 0.00 0.00 0.00 79 1019.3
20260830164609 72 0 1.0 4.0 0.00 0.00 0.00 79 1019.2
20260830164059 72 0 0.0 3.0 0.00 0.00 0.00 77 1019.4
20260830163559 70 293 0.0 2.0 0.00 0.00 0.00 82 1019.4
20260830163108 70 0 0.0 2.0 0.00 0.00 0.00 82 1019.5
20260830162558 70 337 0.0 3.0 0.00 0.00 0.00 83 1019.4
20260830162100 69 305 0.0 3.0 0.00 0.00 0.00 83 1019.5
20260830161635 69 319 1.0 3.0 0.00 0.00 0.00 83 1019.6
20260830161057 69 302 0.0 2.0 0.00 0.00 0.00 83 1019.7
20260830160600 69 307 0.0 3.0 0.00 0.00 0.00 84 1019.7
20260830160104 69 0 0.0 3.0 0.00 0.00 0.00 84 1019.9
20260830155600 69 304 1.0 5.0 0.00 0.00 0.00 83 1020.0
20260830155100 69 281 0.0 5.0 0.00 0.00 0.00 82 1019.9
20260830154601 70 152 1.0 5.0 0.00 0.00 0.00 81 1020.0
20260830154105 69 0 0.0 5.0 0.00 0.00 0.00 81 1020.1
20260830153604 69 174 0.0 5.0 0.00 0.00 0.00 82 1020.3
20260830153104 68 157 1.0 3.0 0.00 0.00 0.00 84 1020.4
20260830152600 68 302 0.0 3.0 0.00 0.00 0.00 83 1020.3
20260830152059 68 0 0.0 6.0 0.00 0.00 0.00 84 1020.3
20260830151603 69 0 1.0 6.0 0.00 0.00 0.00 82 1020.4
20260830151059 69 198 3.0 8.0 0.00 0.00 0.00 79 1020.4
20260830150602 68 141 1.0 8.0 0.00 0.00 0.00 81 1020.5
20260830150110 67 161 1.0 6.0 0.00 0.00 0.00 84 1020.6
20260830145605 67 299 0.0 4.0 0.00 0.00 0.00 84 1020.1
20260830145100 67 0 1.0 3.0 0.00 0.00 0.00 84 1019.8
20260830144607 67 273 0.0 2.0 0.00 0.00 0.00 84 1019.6
20260830144104 67 0 0.0 2.0 0.00 0.00 0.00 83 1019.7
20260830143600 68 0 0.0 3.0 0.00 0.00 0.00 82 1020.3
20260830143107 68 292 0.0 4.0 0.00 0.00 0.00 80 1020.3
20260830142603 69 276 0.0 4.0 0.00 0.00 0.00 79 1020.4
20260830142058 69 0 1.0 9.0 0.00 0.00 0.00 75 1020.5
20260830141608 69 0 1.0 9.0 0.00 0.00 0.00 77 1020.5
20260830141101 69 8 1.0 3.0 0.00 0.00 0.00 80 1020.5
20260830140601 69 0 1.0 3.0 0.00 0.00 0.00 82 1020.6
20260830140111 69 163 0.0 4.0 0.00 0.00 0.00 84 1020.6
20260830135559 69 0 2.0 4.0 0.00 0.00 0.00 83 1020.5
20260830135059 68 174 0.0 3.0 0.00 0.00 0.00 87 1020.5
20260830134605 67 269 0.0 3.0 0.00 0.00 0.00 86 1020.5
20260830134058 67 295 0.0 3.0 0.00 0.00 0.00 84 1020.6
20260830133600 68 303 0.0 3.0 0.00 0.00 0.00 84 1020.5
20260830133104 67 0 0.0 3.0 0.00 0.00 0.00 86 1020.4
20260830132559 66 0 0.0 3.0 0.00 0.00 0.00 88 1020.3
20260830132101 65 0 0.0 3.0 0.00 0.00 0.00 89 1020.4
20260830131617 65 0 0.0 1.0 0.00 0.00 0.00 90 1020.4
20260830131059 64 0 0.0 1.0 0.00 0.00 0.00 92 1020.5
20260830130601 63 0 0.0 2.0 0.00 0.00 0.00 92 1020.5
20260830130113 63 0 0.0 2.0 0.00 0.00 0.00 92 1020.6
20260830125558 63 0 0.0 3.0 0.00 0.00 0.00 92 1020.7
20260830125058 62 0 1.0 3.0 0.00 0.00 0.00 93 1020.8
20260830124602 62 0 0.0 2.0 0.00 0.00 0.00 93 1020.9
20260830124101 62 141 0.0 2.0 0.00 0.00 0.00 93 1020.9
20260830123600 61 0 0.0 2.0 0.00 0.00 0.00 94 1020.8
20260830123105 61 0 0.0 2.0 0.00 0.00 0.00 95 1020.7
20260830122559 60 0 0.0 2.0 0.00 0.00 0.00 95 1020.7
20260830122101 59 182 0.0 1.0 0.00 0.00 0.00 95 1020.7
20260830121605 58 0 0.0 1.0 0.00 0.00 0.00 95 1020.7
20260830121058 58 0 0.0 1.0 0.00 0.00 0.00 95 1020.7
20260830120558 57 0 0.0 1.0 0.00 0.00 0.00 95 1020.8
20260830120105 57 0 0.0 1.0 0.00 0.00 0.00 95 1020.7
20260830115559 56 0 0.0 1.0 0.00 0.00 0.00 95 1020.8
20260830115102 56 0 0.0 2.0 0.00 0.00 0.00 96 1020.6
20260830114605 56 0 0.0 2.0 0.00 0.00 0.00 96 1020.8
20260830114100 55 0 0.0 2.0 0.00 0.00 0.00 96 1020.8
20260830113559 55 0 0.0 1.0 0.00 0.00 0.00 95 1020.9
20260830113111 55 0 0.0 1.0 0.00 0.00 0.00 96 1020.9
20260830112559 55 0 0.0 1.0 0.00 0.00 0.00 96 1021.0
20260830112102 54 0 0.0 2.0 0.00 0.00 0.00 96 1021.0
20260830111605 54 0 0.0 2.0 0.00 0.00 0.00 95 1020.9
20260830111101 54 0 0.0 2.0 0.00 0.00 0.00 95 1020.9
20260830110559 54 151 0.0 2.0 0.00 0.00 0.00 96 1020.9
20260830110137 54 0 0.0 2.0 0.00 0.00 0.00 96 1020.9
20260830105600 54 0 0.0 2.0 0.00 0.00 0.00 96 1020.8
20260830105059 54 0 0.0 2.0 0.00 0.00 0.00 96 1020.9
20260830104602 54 0 0.0 2.0 0.00 0.00 0.00 96 1020.9
20260830104059 53 0 0.0 1.0 0.00 0.00 0.00 96 1020.9
20260830103559 53 0 0.0 1.0 0.00 0.00 0.00 96 1020.8
20260830103106 53 0 0.0 1.0 0.00 0.00 0.00 95 1021.0
20260830102558 53 0 0.0 1.0 0.00 0.00 0.00 95 1021.0
20260830102058 53 0 0.0 2.0 0.00 0.00 0.00 95 1020.9
20260830101605 53 0 0.0 2.0 0.00 0.00 0.00 95 1020.8
20260830101058 53 0 0.0 1.0 0.00 0.00 0.00 95 1020.9
20260830100558 53 0 0.0 1.0 0.00 0.00 0.00 96 1020.9
20260830095600 53 0 0.0 1.0 0.00 0.00 0.00 95 1020.9
20260830095101 52 0 0.0 1.0 0.00 0.00 0.00 95 1021.0
20260830094607 52 327 0.0 2.0 0.00 0.00 0.00 95 1020.9
20260830094059 52 0 0.0 2.0 0.00 0.00 0.00 95 1020.8
20260830093602 52 30 0.0 1.0 0.00 0.00 0.00 95 1021.1
20260830093138 53 0 0.0 1.0 0.00 0.00 0.00 95 1021.0
20260830092559 52 0 0.0 1.0 0.00 0.00 0.00 95 1021.0
20260830092059 53 0 0.0 1.0 0.00 0.00 0.00 95 1021.0
20260830091601 52 354 0.0 1.0 0.00 0.00 0.00 95 1021.0
20260830091100 52 0 0.0 1.0 0.00 0.00 0.00 95 1021.0
20260830090559 52 0 0.0 1.0 0.00 0.00 0.00 95 1020.9
20260830090104 52 0 0.0 1.0 0.00 0.00 0.00 95 1021.1
20260830085558 52 0 0.0 2.0 0.00 0.00 0.00 95 1021.1
20260830085059 52 0 0.0 2.0 0.00 0.00 0.00 95 1021.0
20260830084605 52 273 0.0 2.0 0.00 0.00 0.00 95 1021.1
20260830084103 53 0 0.0 2.0 0.00 0.00 0.00 95 1021.2
20260830083601 53 0 0.0 2.0 0.00 0.00 0.00 95 1021.1
20260830083117 53 0 0.0 1.0 0.00 0.00 0.00 95 1021.2
20260830082559 53 0 0.0 1.0 0.00 0.00 0.00 95 1021.2
20260830082058 53 0 0.0 2.0 0.00 0.00 0.00 95 1021.2
20260830081608 53 0 0.0 2.0 0.00 0.00 0.00 95 1021.3
20260830081059 53 0 0.0 1.0 0.00 0.00 0.00 95 1021.2
20260830080559 53 0 0.0 1.0 0.00 0.00 0.00 95 1021.4
20260830080106 53 0 0.0 1.0 0.00 0.00 0.00 95 1021.4
20260830075559 53 0 0.0 2.0 0.00 0.00 0.00 95 1021.5
20260830075059 53 0 0.0 2.0 0.00 0.00 0.00 95 1021.4
20260830074658 53 0 0.0 1.0 0.00 0.00 0.00 95 1021.4
20260830074058 53 0 0.0 1.0 0.00 0.00 0.00 95 1021.5
20260830073558 53 253 0.0 1.0 0.00 0.00 0.00 95 1021.4
20260830073113 53 0 0.0 1.0 0.00 0.00 0.00 95 1021.4
20260830072559 53 0 0.0 1.0 0.00 0.00 0.00 95 1021.4
20260830072100 53 0 0.0 1.0 0.00 0.00 0.00 95 1021.4
20260830071624 53 0 0.0 1.0 0.00 0.00 0.00 95 1021.5
20260830071058 53 0 0.0 1.0 0.00 0.00 0.00 95 1021.4
20260830070559 53 0 0.0 2.0 0.00 0.00 0.00 95 1021.4
20260830070106 53 71 0.0 2.0 0.00 0.00 0.00 95 1021.4
20260830065603 53 39 0.0 2.0 0.00 0.00 0.00 95 1021.5
20260830065059 53 0 0.0 1.0 0.00 0.00 0.00 95 1021.4
20260830064604 53 0 0.0 1.0 0.00 0.00 0.00 94 1021.4
20260830064059 53 0 0.0 2.0 0.00 0.00 0.00 94 1021.4
20260830063559 53 0 0.0 2.0 0.00 0.00 0.00 95 1021.5
20260830063101 53 0 0.0 2.0 0.00 0.00 0.00 95 1021.5
20260830062559 53 0 0.0 2.0 0.00 0.00 0.00 94 1021.5
20260830062103 53 0 0.0 0.0 0.00 0.00 0.00 94 1021.5
20260830061605 53 0 0.0 1.0 0.00 0.00 0.00 94 1021.5
20260830061059 53 0 0.0 1.0 0.00 0.00 0.00 94 1021.5
20260830060559 54 0 0.0 1.0 0.00 0.00 0.00 94 1021.6
20260830060107 54 0 0.0 0.0 0.00 0.00 0.00 94 1021.6
20260830055559 53 0 0.0 0.0 0.00 0.00 0.00 94 1021.6
20260830055058 54 0 0.0 1.0 0.00 0.00 0.00 94 1021.7
20260830054608 54 0 0.0 1.0 0.00 0.00 0.00 94 1021.8
20260830054100 54 0 0.0 1.0 0.00 0.00 0.00 94 1021.6
20260830053558 54 0 0.0 0.0 0.00 0.00 0.00 94 1021.7
20260830053104 54 0 0.0 1.0 0.00 0.00 0.00 94 1021.7
20260830052559 54 0 0.0 2.0 0.00 0.00 0.00 94 1021.7
20260830052059 54 0 0.0 2.0 0.00 0.00 0.00 94 1021.7
20260830051605 55 0 0.0 2.0 0.00 0.00 0.00 94 1021.6
20260830051059 54 0 0.0 1.0 0.00 0.00 0.00 94 1021.6
20260830050559 55 0 0.0 1.0 0.00 0.00 0.00 94 1021.7
20260830050111 55 0 0.0 0.0 0.00 0.00 0.00 94 1021.8
20260830045558 55 0 0.0 0.0 0.00 0.00 0.00 94 1021.8
20260830045100 55 0 0.0 0.0 0.00 0.00 0.00 94 1021.9
20260830044601 55 0 0.0 0.0 0.00 0.00 0.00 94 1021.9
20260830044058 55 0 0.0 0.0 0.00 0.00 0.00 94 1022.0
20260830043559 55 0 0.0 0.0 0.00 0.00 0.00 94 1021.9